Location: Hengforden
(52.3167°N, 6.1333°E)
Time: 15:11:25
(UTC+00:00)

Cosmos 1802 Rocket - Pass Details

Date: 14 June 2025
Orbit: 954 x 1010 km, 82.9° (Epoch: 19 July)

Event Time Altitude Azimuth Distance (km) Brightness Sun altitude
Rises 20:37:59 0° 350° (N) 3,757 8.2 -5.0°
Reaches altitude 10° 20:40:36 10° 355° (N) 2,804 7.4 -5.3°
Maximum altitude 20:46:59 60° 75° (ENE) 1,154 4.3 -5.9°
Drops below altitude 10° 20:53:17 10° 154° (SSE) 2,774 5.7 -6.5°
Enters shadow 20:54:02 - 156° (SSE) 3,045 5.9 -6.5°
